RADUGA-1M 3

Last updated on Tue Sep 22 2026 00:03:13 GMT+0000 (Coordinated Universal Time)

1 39375U 13062A 26264.13962913 .00000152 00000+0 00000+0 0 9999 2 39375 6.1983 71.1100 0002084 305.5514 68.5933 1.00272533 47078
UTC large
Height (km)
Speed (km/s)
/
Latitude / Longitude
Inclination (degrees)
Orbital Period (minutes)
Azimuth
Elevation
Range (km)
Doppler Factor

Next 0 passes for location: London (51.5072 / 0.1276)

No passes found over London.
RADUGA-1M 3